EN

Hourly Weather Alzano Lombardo

Today, 22 January, Friday

Time Temperature Precipitation Wind Pressure Humidity
00:00 +5°C° 1.7 mm 1 mps 713 mmHg 98%
01:00 +5°C° 1.7 mm 1 mps 712 mmHg 98%
02:00 +5°C° 1.7 mm 1 mps 711 mmHg 98%
03:00 +5°C° 1.7 mm 1 mps 711 mmHg 97%
04:00 +5°C° 1.7 mm 1 mps 710 mmHg 97%
05:00 +5°C° 0.8 mm 1 mps 710 mmHg 97%
06:00 +5°C° 0.8 mm 1 mps 710 mmHg 97%
07:00 +4°C° 0.8 mm 0 mps 710 mmHg 96%
08:00 +6°C° 0.1 mm 1 mps 710 mmHg 96%
09:00 +6°C° 0.1 mm 1 mps 709 mmHg 95%
10:00 +6°C° 0.1 mm 1 mps 709 mmHg 94%
11:00 +6°C° 0.1 mm 1 mps 709 mmHg 94%
12:00 +7°C° 0.1 mm 1 mps 708 mmHg 94%
13:00 +7°C° 0.1 mm 1 mps 707 mmHg 93%
14:00 +7°C° 1.5 mm 1 mps 706 mmHg 94%
15:00 +5°C° 1.5 mm 2 mps 705 mmHg 96%
16:00 +5°C° 1.5 mm 2 mps 704 mmHg 97%
17:00 +5°C° 3 mm 2 mps 704 mmHg 96%
18:00 +5°C° 3 mm 2 mps 703 mmHg 95%
19:00 +5°C° 3 mm 2 mps 702 mmHg 93%
20:00 +5°C° 2.1 mm 2 mps 701 mmHg 94%
21:00 +5°C° 2.1 mm 2 mps 701 mmHg 94%
22:00 +5°C° 2.1 mm 2 mps 700 mmHg 95%
23:00 +5°C° 2.7 mm 2 mps 700 mmHg 95%

Tomorrow, 23 January, Saturday

Time Temperature Precipitation Wind Pressure Humidity
00:00 +5°C° 2.7 mm 2 mps 700 mmHg 95%
01:00 +5°C° 2.7 mm 2 mps 700 mmHg 94%
02:00 +6°C° 2 mm 1 mps 700 mmHg 95%
03:00 +6°C° 2 mm 1 mps 701 mmHg 96%
04:00 +5°C° 2 mm 1 mps 701 mmHg 96%
05:00 +5°C° 1 mm 1 mps 702 mmHg 95%
06:00 +5°C° 1 mm 1 mps 702 mmHg 95%
07:00 +5°C° 1 mm 1 mps 703 mmHg 94%
08:00 +5°C° 0.4 mm 1 mps 703 mmHg 91%
09:00 +5°C° 0.4 mm 1 mps 703 mmHg 89%
10:00 +5°C° 0.4 mm 1 mps 703 mmHg 87%
11:00 +5°C° 0.1 mm 1 mps 703 mmHg 85%
12:00 +6°C° 0.1 mm 1 mps 703 mmHg 83%
13:00 +6°C° 0.1 mm 1 mps 703 mmHg 82%
14:00 +6°C° 0.1 mm 1 mps 703 mmHg 83%
15:00 +6°C° 0.1 mm 1 mps 703 mmHg 84%
16:00 +6°C° 0.1 mm 1 mps 703 mmHg 85%
17:00 +5°C° 0 mm 1 mps 703 mmHg 86%
18:00 +4°C° 0 mm 1 mps 704 mmHg 87%
19:00 +4°C° 0 mm 1 mps 704 mmHg 88%
20:00 +3°C° 0 mm 1 mps 704 mmHg 86%
21:00 +2°C° 0 mm 1 mps 704 mmHg 83%
22:00 +2°C° 0 mm 1 mps 704 mmHg 81%
23:00 +1°C° 0 mm 1 mps 704 mmHg 79%

Day after tomorrow, 24 January, Sunday

Time Temperature Precipitation Wind Pressure Humidity
00:00 +1°C° 0 mm 1 mps 705 mmHg 77%
01:00 -1°C° 0 mm 2 mps 705 mmHg 75%
02:00 -1°C° 0 mm 2 mps 705 mmHg 73%
03:00 -2°C° 0 mm 2 mps 705 mmHg 70%
04:00 -2°C° 0 mm 2 mps 705 mmHg 68%
05:00 -2°C° 0 mm 2 mps 705 mmHg 66%
06:00 -2°C° 0 mm 2 mps 706 mmHg 65%
07:00 -2°C° 0 mm 2 mps 706 mmHg 63%
08:00 -2°C° 0 mm 2 mps 706 mmHg 62%
09:00 -1°C° 0 mm 2 mps 707 mmHg 61%
10:00 +2°C° 0 mm 1 mps 707 mmHg 61%
11:00 +3°C° 0 mm 1 mps 707 mmHg 59%
12:00 +4°C° 0 mm 1 mps 707 mmHg 58%
13:00 +6°C° 0 mm 1 mps 707 mmHg 57%
14:00 +5°C° 0 mm 1 mps 707 mmHg 62%
15:00 +5°C° 0 mm 1 mps 707 mmHg 68%
16:00 +4°C° 0 mm 1 mps 707 mmHg 73%
17:00 +3°C° 0 mm 1 mps 707 mmHg 76%
18:00 +2°C° 0 mm 1 mps 708 mmHg 79%
19:00 +1°C° 0 mm 1 mps 708 mmHg 83%
20:00 +1°C° 0 mm 1 mps 708 mmHg 80%
21:00 +1°C° 0 mm 1 mps 708 mmHg 78%
22:00 -1°C° 0 mm 2 mps 708 mmHg 75%
23:00 -2°C° 0 mm 2 mps 708 mmHg 73%

25 January, Monday

Time Temperature Precipitation Wind Pressure Humidity
00:00 -2°C° 0 mm 2 mps 708 mmHg 71%
01:00 -2°C° 0 mm 2 mps 708 mmHg 68%
02:00 -2°C° 0 mm 2 mps 708 mmHg 67%
03:00 -2°C° 0 mm 2 mps 708 mmHg 65%
04:00 -3°C° 0 mm 2 mps 709 mmHg 64%
05:00 -3°C° 0 mm 2 mps 709 mmHg 62%
06:00 -3°C° 0 mm 2 mps 710 mmHg 59%
07:00 -3°C° 0 mm 2 mps 711 mmHg 57%
08:00 -2°C° 0 mm 2 mps 712 mmHg 57%
09:00 -1°C° 0 mm 2 mps 712 mmHg 57%
10:00 -1°C° 0 mm 2 mps 713 mmHg 57%
11:00 +2°C° 0 mm 2 mps 714 mmHg 54%
12:00 +3°C° 0 mm 2 mps 714 mmHg 50%
13:00 +4°C° 0 mm 2 mps 714 mmHg 47%
14:00 +4°C° 0 mm 2 mps 715 mmHg 49%
15:00 +4°C° 0 mm 2 mps 715 mmHg 51%
16:00 +4°C° 0 mm 2 mps 715 mmHg 53%
17:00 +2°C° 0 mm 2 mps 716 mmHg 55%
18:00 +1°C° 0 mm 2 mps 716 mmHg 57%
19:00 -2°C° 0 mm 3 mps 717 mmHg 60%
20:00 -2°C° 0 mm 3 mps 717 mmHg 58%
21:00 -4°C° 0 mm 3 mps 718 mmHg 56%
22:00 -4°C° 0 mm 3 mps 718 mmHg 54%
23:00 -3°C° 0 mm 2 mps 718 mmHg 53%

26 January, Tuesday

Time Temperature Precipitation Wind Pressure Humidity
00:00 -3°C° 0 mm 2 mps 719 mmHg 53%
01:00 -3°C° 0 mm 2 mps 719 mmHg 52%
02:00 -4°C° 0 mm 2 mps 719 mmHg 52%
03:00 -4°C° 0 mm 2 mps 719 mmHg 52%
04:00 -4°C° 0 mm 2 mps 719 mmHg 53%
05:00 -4°C° 0 mm 2 mps 719 mmHg 53%
06:00 -4°C° 0 mm 2 mps 720 mmHg 53%
07:00 -4°C° 0 mm 2 mps 720 mmHg 52%
08:00 -3°C° 0 mm 2 mps 720 mmHg 52%
09:00 -2°C° 0 mm 2 mps 720 mmHg 51%
10:00 +1°C° 0 mm 1 mps 721 mmHg 50%
11:00 +3°C° 0 mm 1 mps 720 mmHg 49%
12:00 +4°C° 0 mm 1 mps 720 mmHg 47%
13:00 +5°C° 0 mm 1 mps 720 mmHg 45%
14:00 +5°C° 0 mm 1 mps 720 mmHg 50%
15:00 +5°C° 0 mm 1 mps 720 mmHg 54%
16:00 +4°C° 0 mm 1 mps 720 mmHg 58%
17:00 +3°C° 0 mm 1 mps 720 mmHg 60%
18:00 +2°C° 0 mm 1 mps 720 mmHg 62%
19:00 -1°C° 0 mm 2 mps 720 mmHg 63%
20:00 -2°C° 0 mm 2 mps 720 mmHg 62%
21:00 0°C° 0 mm 1 mps 721 mmHg 60%
22:00 0°C° 0 mm 1 mps 721 mmHg 58%
23:00 0°C° 0 mm 1 mps 720 mmHg 57%

27 January, Wednesday

Time Temperature Precipitation Wind Pressure Humidity
00:00 0°C° 0 mm 1 mps 720 mmHg 57%
01:00 0°C° 0 mm 1 mps 720 mmHg 57%
02:00 0°C° 0 mm 1 mps 720 mmHg 56%
03:00 0°C° 0 mm 1 mps 719 mmHg 56%
04:00 0°C° 0 mm 1 mps 719 mmHg 56%
05:00 0°C° 0 mm 1 mps 719 mmHg 57%
06:00 0°C° 0 mm 1 mps 718 mmHg 58%
07:00 +1°C° 0 mm 1 mps 718 mmHg 58%
08:00 +1°C° 0.1 mm 1 mps 718 mmHg 61%
09:00 +2°C° 0.1 mm 1 mps 719 mmHg 63%
10:00 +2°C° 0.1 mm 1 mps 719 mmHg 65%
11:00 +3°C° 0 mm 1 mps 719 mmHg 65%
12:00 +5°C° 0 mm 1 mps 719 mmHg 64%
13:00 +5°C° 0 mm 2 mps 719 mmHg 64%
14:00 +6°C° 0 mm 1 mps 719 mmHg 67%
15:00 +6°C° 0 mm 1 mps 719 mmHg 70%
16:00 +6°C° 0 mm 1 mps 719 mmHg 73%
17:00 +4°C° 0 mm 2 mps 720 mmHg 72%
18:00 +3°C° 0 mm 2 mps 720 mmHg 71%
19:00 +1°C° 0 mm 3 mps 721 mmHg 71%
20:00 +1°C° 0 mm 2 mps 721 mmHg 70%
21:00 +1°C° 0 mm 2 mps 721 mmHg 70%
22:00 -1°C° 0 mm 2 mps 722 mmHg 69%
23:00 -1°C° 0 mm 2 mps 722 mmHg 67%
Show more